EA3KZ-1 Weather Reports


time (UTC)temp
C
wind
direction
speed
KPH
gust
KPH
rain 1hr
cm
rain 24hr
cm
rain mn
cm
humidity
%
barometer
mb
20260507042546 11 268 1.6 6.4 0.00 0.00 0.00 86 1008.5
20260507041544 11 285 0.0 3.2 0.00 0.00 0.00 86 1008.4
20260507040541 11 0.0 0.0 0.00 0.00 0.00 86 1008.5
20260507035538 11 0.0 3.2 0.00 0.00 0.00 86 1008.5
20260507034536 11 256 1.6 3.2 0.00 0.00 0.00 86 1008.4
20260507033533 11 0.0 0.0 0.00 0.00 0.00 86 1008.5
20260507032531 11 0.0 0.0 0.00 0.00 0.00 86 1008.6
20260507031528 11 0.0 3.2 0.00 0.00 0.00 86 1008.8
20260507030525 11 0.0 0.0 0.00 0.00 0.00 86 1008.7
20260507025523 11 282 1.6 6.4 0.00 0.00 0.00 85 1008.5
20260507024520 11 278 4.8 6.4 0.00 0.00 0.00 85 1008.6
20260507023518 11 281 4.8 6.4 0.00 0.00 0.00 85 1008.4
20260507022515 11 280 4.8 6.4 0.00 0.00 0.00 85 1008.5
20260507021613 11 284 4.8 6.4 0.00 0.00 0.00 85 1008.5
20260507020610 11 289 4.8 9.7 0.00 0.00 0.00 85 1008.6
20260507015607 12 295 4.8 6.4 0.00 0.00 0.00 85 1008.7
20260507014605 12 265 4.8 6.4 0.00 0.00 0.00 85 1008.8
20260507013602 11 297 4.8 6.4 0.00 0.00 0.00 86 1008.8
20260507012600 11 294 4.8 6.4 0.00 0.00 0.00 86 1008.7
20260507011557 11 295 6.4 9.7 0.00 0.00 0.00 86 1008.7
20260507010554 11 296 6.4 9.7 0.00 0.00 0.00 87 1008.9
20260507005552 11 293 6.4 9.7 0.00 0.00 0.00 87 1008.9
20260507004549 11 286 6.4 9.7 0.00 0.00 0.00 87 1009.0
20260507003547 11 301 6.4 11.3 0.00 0.00 0.00 88 1009.0
20260507002544 11 296 6.4 9.7 0.00 0.00 0.00 88 1009.0
20260507001541 11 288 4.8 11.3 0.00 0.00 0.00 88 1009.2
20260507000539 11 293 8.0 11.3 0.00 0.00 0.00 88 1009.1
20260506235536 11 307 6.4 11.3 0.00 0.00 0.00 88 1009.2
20260506234534 12 294 8.0 12.9 0.00 0.00 0.00 89 1009.1
20260506233531 12 280 6.4 12.9 0.00 0.00 0.00 89 1009.2
20260506232529 12 296 8.0 11.3 0.00 0.00 0.00 89 1009.3
20260506231526 12 303 8.0 11.3 0.00 0.00 0.00 89 1009.3
20260506230523 12 293 8.0 12.9 0.00 0.00 0.00 88 1009.3
20260506225521 12 290 8.0 11.3 0.00 0.00 0.00 87 1009.3
20260506224518 12 289 6.4 12.9 0.00 0.00 0.00 85 1009.3
20260506223515 12 307 6.4 11.3 0.00 0.00 0.00 84 1009.3
20260506222613 12 307 4.8 6.4 0.00 0.00 0.00 84 1009.3
20260506221610 12 282 6.4 9.7 0.00 0.00 0.00 84 1009.3
20260506220608 12 297 3.2 6.4 0.00 0.00 0.00 83 1009.3
20260506215605 12 311 4.8 9.7 0.00 0.00 0.00 83 1009.2
20260506214603 12 276 3.2 6.4 0.00 0.00 0.00 83 1009.1
20260506213600 12 300 4.8 6.4 0.00 0.00 0.00 82 1009.2
20260506212557 13 295 3.2 6.4 0.00 0.00 0.00 83 1009.2
20260506211555 13 307 6.4 9.7 0.00 0.00 0.00 82 1009.2
20260506210552 13 341 3.2 6.4 0.00 0.00 0.00 80 1009.1
20260506205550 13 6 1.6 3.2 0.00 0.00 0.00 79 1009.1
20260506204547 13 15 1.6 6.4 0.00 0.00 0.00 79 1008.9
20260506203544 14 15 1.6 6.4 0.00 0.00 0.00 77 1008.7
20260506202542 14 6 3.2 9.7 0.00 0.00 0.00 78 1008.7
20260506201539 13 5 3.2 6.4 0.00 0.00 0.00 80 1008.5
20260506200531 14 359 1.6 6.4 0.00 0.00 0.00 78 1008.4
20260506195528 14 14 3.2 6.4 0.00 0.00 0.00 78 1008.2
20260506194520 14 348 3.2 6.4 0.00 0.00 0.00 80 1008.0
20260506193518 14 325 3.2 9.7 0.00 0.00 0.00 78 1007.7
20260506192515 15 348 3.2 9.7 0.00 0.00 0.00 74 1007.6
20260506191607 15 33 4.8 9.7 0.00 0.00 0.00 71 1007.6
20260506190604 15 4 4.8 14.5 0.00 0.00 0.00 71 1007.4
20260506185557 15 36 8.0 17.7 0.00 0.00 0.00 71 1007.2
20260506184554 15 68 4.8 12.9 0.00 0.00 0.00 69 1007.1
20260506183551 15 5 8.0 17.7 0.00 0.00 0.00 68 1006.9
20260506182543 16 353 4.8 14.5 0.00 0.00 0.00 67 1006.8
20260506181540 16 23 6.4 11.3 0.00 0.00 0.00 67 1006.8
20260506180532 16 18 11.3 20.9 0.00 0.00 0.00 66 1006.7
20260506175529 17 55 6.4 17.7 0.00 0.00 0.00 63 1006.6
20260506174526 17 21 9.7 20.9 0.00 0.00 0.00 62 1006.5
20260506173518 17 333 6.4 20.9 0.00 0.00 0.00 59 1006.1
20260506172515 17 20 8.0 14.5 0.00 0.00 0.00 56 1006.1
20260506171607 18 55 3.2 9.7 0.00 0.03 0.00 54 1006.2
20260506170604 18 159 1.6 6.4 0.00 0.03 0.00 55 1006.1
20260506165557 18 100 1.6 6.4 0.00 0.03 0.00 54 1006.0
20260506164554 18 100 3.2 9.7 0.00 0.05 0.00 55 1006.0
20260506163551 18 102 4.8 14.5 0.00 0.05 0.00 55 1005.9
20260506162543 18 104 4.8 17.7 0.00 0.10 0.00 55 1005.9
20260506161540 19 118 3.2 9.7 0.00 0.10 0.00 54 1005.8
20260506160533 19 115 3.2 17.7 0.00 0.13 0.00 54 1005.7
20260506155530 18 71 4.8 17.7 0.00 0.61 0.00 55 1005.7
20260506154527 18 153 4.8 17.7 0.00 0.84 0.00 55 1005.6
20260506153519 20 119 6.4 14.5 0.00 0.84 0.00 52 1005.7
20260506152517 20 87 6.4 17.7 0.00 0.84 0.00 49 1005.6
20260506151608 20 149 4.8 12.9 0.00 0.84 0.00 49 1005.7
20260506150605 20 139 3.2 12.9 0.00 0.84 0.00 48 1005.7
20260506145603 20 119 6.4 11.3 0.00 0.84 0.00 49 1005.7
20260506144554 20 99 8.0 17.7 0.00 0.84 0.00 47 1005.9
20260506143551 20 108 6.4 17.7 0.00 0.84 0.00 46 1005.9
20260506142543 20 127 6.4 17.7 0.00 0.84 0.00 48 1006.0
20260506141540 20 129 8.0 17.7 0.00 0.84 0.00 48 1006.1
20260506140533 20 132 8.0 14.5 0.00 0.84 0.00 46 1006.2
20260506135530 20 142 4.8 14.5 0.00 0.84 0.00 45 1006.3
20260506134528 19 170 8.0 14.5 0.00 0.84 0.00 44 1006.3
20260506133519 20 105 3.2 14.5 0.00 0.84 0.00 43 1006.3
20260506132516 20 196 4.8 17.7 0.00 0.84 0.00 44 1006.4
20260506131608 19 133 11.3 17.7 0.00 0.84 0.00 44 1006.5
20260506130605 20 143 4.8 17.7 0.00 0.84 0.00 44 1006.6
20260506125603 19 195 6.4 22.5 0.00 0.84 0.00 47 1006.6
20260506124555 19 154 9.7 22.5 0.00 0.84 0.00 46 1006.6
20260506123552 20 162 4.8 17.7 0.00 0.84 0.00 45 1006.7
20260506122544 19 121 6.4 17.7 0.00 0.84 0.00 47 1006.7
20260506121541 18 123 6.4 17.7 0.00 0.84 0.00 48 1006.8
20260506120539 20 130 8.0 17.7 0.00 0.84 0.00 44 1006.8
20260506115530 19 103 6.4 17.7 0.00 0.84 0.00 46 1006.8
20260506114528 18 176 4.8 11.3 0.00 0.84 0.00 46 1007.0
20260506113519 18 100 4.8 12.9 0.00 0.84 0.00 48 1006.9
20260506112516 18 143 4.8 9.7 0.00 0.84 0.00 49 1007.1
20260506111610 18 122 3.2 17.7 0.00 0.84 0.00 51 1007.3
20260506110605 17 129 4.8 12.9 0.00 0.84 0.00 54 1007.4
20260506105603 17 127 4.8 12.9 0.00 0.84 0.00 56 1007.4
20260506104555 18 121 1.6 6.4 0.00 0.84 0.00 55 1007.4
20260506103552 17 118 1.6 6.4 0.00 0.84 0.00 58 1007.5
20260506102544 17 277 3.2 6.4 0.00 0.84 0.00 57 1007.6
20260506101541 16 130 4.8 12.9 0.00 0.84 0.00 58 1007.6
20260506100539 16 114 4.8 11.3 0.00 0.84 0.00 58 1007.6
20260506095531 16 141 4.8 9.7 0.00 0.84 0.00 59 1007.9
20260506094529 15 135 3.2 6.4 0.00 0.84 0.00 61 1007.9
20260506093520 15 176 6.4 12.9 0.00 0.84 0.00 61 1007.9
20260506092517 15 215 4.8 9.7 0.00 0.84 0.00 61 1008.0
20260506091515 15 174 4.8 14.5 0.00 0.84 0.00 60 1007.8
20260506090606 15 179 6.4 12.9 0.00 0.84 0.00 61 1007.7
20260506085604 15 208 6.4 14.5 0.00 0.84 0.00 61 1007.7
20260506084555 15 206 4.8 12.9 0.00 0.84 0.00 60 1007.8
20260506083553 14 213 6.4 11.3 0.00 0.84 0.00 60 1007.6
20260506082544 14 146 0.0 6.4 0.00 0.84 0.00 64 1007.6
20260506081541 13 214 4.8 11.3 0.00 0.84 0.00 64 1007.5
20260506080539 13 229 8.0 17.7 0.00 0.84 0.00 64 1007.5
20260506073520 12 230 6.4 14.5 0.00 0.84 0.00 70 1007.3
20260506072517 12 217 6.4 12.9 0.00 0.84 0.00 72 1007.2
20260506071515 11 228 9.7 17.7 0.00 0.84 0.00 74 1007.2
20260506070607 11 214 11.3 22.5 0.00 0.84 0.00 74 1007.2
20260506061542 11 242 6.4 11.3 0.00 0.84 0.00 76 1007.2
20260506060540 11 227 4.8 6.4 0.00 0.84 0.00 77 1007.1
20260506050607 10 248 1.6 9.7 0.00 0.84 0.00 80 1006.6
20260506044556 10 244 3.2 6.4 0.00 0.84 0.00 81 1006.5
20260506043554 9 243 3.2 6.4 0.00 0.84 0.00 82 1006.5